Beidou DSW 2

operational
NORAD ID: 26643 Int'l Des: 2000-082 Owner: CNSA Country: CN Constellation: BeiDou
HEOCIRCULAR

关于 Beidou DSW 2

正在加载描述...

实时位置

正在加载3D地球...

即将过境

高度历史

Altitude vs Time

uPlot chart will show altitude changes over time

两行轨道根数

1 26643U 00082A 26062.09095326 -.00000076 00000-0 00000+0 0 9994
2 26643 12.4404 28.1082 0076420 84.7173 98.5977 0.99254155 51021
Epoch: Mar 3, 2026 • Age: 9 hours

当前状态

高度 36378.6 km
速度 3.04 km/s
星下点 -11.95°S, 16.82°E
发射日期 Dec 20, 2000
运行时间 25.1 years
类型 navigation

技术详情

分类 Payload
质量 2311.00 kg
干质量 1300.00 kg
总质量 2311.00 kg
长度 3.00 m
直径 1.70 m
跨度 18.00 m
形状 Box + 2 Pan
制造商 CAST
平台类型 DFH-3
阶段状态 In Orbit
所有者/国家 CNSA/CN

大型星座

Loading constellations...